Location: Piotrkow Trybunalski
(51.4000°N, 19.6830°E)
Time: 05:47:32
(UTC+02:00)

A-11 Canister half - Pass Details

Date: 03 February 2023
Orbit: 1526 x 1682 km, 47.3° (Epoch: 25 March)

Event Time Altitude Azimuth Distance (km) Brightness Sun altitude
Rises 07:56:21 0° 258° (WSW) 4,675 11.1 4.5°
Reaches altitude 10° 07:59:23 10° 256° (WSW) 3,698 10.6 4.9°
Maximum altitude 08:08:37 70° 175° (S) 1,635 9.5 6.1°
Drops below altitude 10° 08:18:05 10° 95° (E) 3,786 12.2 7.3°
Sets 08:21:13 0° 93° (E) 4,792 12.6 7.7°
